Bemidji, MN

8:19 PM CST on January 16, 2018 (GMT -0600)
Bemidji-Beltrami County

Weather History for KBJI - February, 2013

Change the Weather History Date:

Tuesday, February 12, 2013

  Actual Average Record
Temperature  
Mean Temperature 20 °F -  
Max Temperature 30 °F 19 °F 42 °F (1976)
Min Temperature 10 °F -2 °F -34 °F (1967)
Degree Days  
Heating Degree Days 45    
Moisture  
Dew Point 16 °F    
Average Humidity 83    
Maximum Humidity 92    
Minimum Humidity 66    
Precipitation  
Precipitation 0.00 in - - ()
Sea Level Pressure  
Sea Level Pressure 29.75 in    
Wind  
Wind Speed 6 mph (SW)    
Max Wind Speed 14 mph    
Max Gust Speed -    
Visibility 9 miles    
Events Snow    
Averages and records for this station are not official NWS values.
T = Trace of Precipitation, MM = Missing Value Source: NWS Daily Summary

Daily Weather History Graph

Daily Weather History Graph

Search for Another Location

Airport or City:

Trip Planner

Search our weather history database for the weather conditions in past years. The results will help you decide how hot, cold, wet, or windy it might be!

Date:

Astronomy

Feb. 12, 2013 Rise Set
Actual Time 7:29 AM CST 5:38 PM CST
Civil Twilight 6:57 AM CST 6:10 PM CST
Nautical Twilight 6:21 AM CST 6:47 PM CST
Astronomical Twilight 5:46 AM CST 7:22 PM CST
Moon 8:12 AM CST (2/12) 8:58 PM CST (2/12)
Length of Visible Light 11h 13m
Length of Day
10h 09m
Waxing Crescent, 7% of the Moon is Illuminated
Feb 12
Waxing Crescent
Feb 17
First Quarter
Feb 25
Full
Mar 4
Last Quarter
Mar 11
New

Hourly Weather History & Observations

Time (CST) Temp. Windchill Dew Point Humidity Pressure Visibility Wind Dir Wind Speed Gust Speed Precip Events Conditions
12:15 AM 10.2 °F 3.8 °F 7.9 °F 90% 29.88 in 10.0 mi SSW 3.5 mph - N/A Snow Light Snow
12:35 AM 11.3 °F 3.3 °F 8.8 °F 90% 29.87 in 10.0 mi SW 4.6 mph - N/A Snow Light Snow
12:55 AM 12.6 °F 2.2 °F 10.2 °F 90% 29.87 in 10.0 mi SW 6.9 mph - N/A Snow Light Snow
1:15 AM 13.6 °F 2.5 °F 11.3 °F 90% 29.86 in 10.0 mi SW 8.1 mph - N/A Snow Light Snow
1:35 AM 14.0 °F 6.5 °F 11.5 °F 90% 29.85 in 10.0 mi WSW 4.6 mph - N/A Snow Light Snow
1:55 AM 14.0 °F 3.9 °F 11.3 °F 89% 29.85 in 10.0 mi WSW 6.9 mph - N/A Snow Light Snow
2:15 AM 14.2 °F 4.1 °F 12.0 °F 91% 29.85 in 10.0 mi WSW 6.9 mph - N/A   Overcast
2:35 AM 14.7 °F 7.3 °F 12.6 °F 91% 29.84 in 10.0 mi SW 4.6 mph - N/A Snow Light Snow
2:55 AM 14.9 °F 6.1 °F 12.6 °F 90% 29.84 in 10.0 mi SW 5.8 mph - N/A   Overcast
3:15 AM 14.9 °F 7.5 °F 12.6 °F 90% 29.82 in 10.0 mi SSW 4.6 mph - N/A   Overcast
3:35 AM 14.9 °F 7.5 °F 12.7 °F 91% 29.82 in 10.0 mi SSW 4.6 mph - N/A   Overcast
3:55 AM 15.1 °F 6.4 °F 12.9 °F 91% 29.80 in 10.0 mi South 5.8 mph - N/A   Overcast
4:15 AM 15.3 °F 7.9 °F 13.1 °F 91% 29.80 in 10.0 mi SSW 4.6 mph - N/A   Mostly Cloudy
4:35 AM 14.9 °F 6.1 °F 12.9 °F 92% 29.80 in 10.0 mi South 5.8 mph - N/A   Clear
4:55 AM 12.9 °F 2.6 °F 10.8 °F 91% 29.79 in 10.0 mi SSE 6.9 mph - N/A   Clear
5:15 AM 12.2 °F 1.7 °F 10.2 °F 92% 29.78 in 10.0 mi South 6.9 mph - N/A   Mostly Cloudy
5:35 AM 14.0 °F 3.9 °F 12.0 °F 92% 29.78 in 10.0 mi South 6.9 mph - N/A   Overcast
5:55 AM 15.1 °F 4.2 °F 12.9 °F 91% 29.77 in 10.0 mi South 8.1 mph - N/A   Overcast
6:15 AM 15.6 °F 7.0 °F 13.3 °F 90% 29.77 in 10.0 mi South 5.8 mph - N/A   Overcast
6:35 AM 16.2 °F 9.0 °F 13.6 °F 90% 29.76 in 10.0 mi SSW 4.6 mph - N/A   Overcast
6:55 AM 16.2 °F 6.5 °F 13.6 °F 90% 29.76 in 10.0 mi South 6.9 mph - N/A   Overcast
7:15 AM 15.6 °F 8.3 °F 13.1 °F 90% 29.76 in 10.0 mi SSW 4.6 mph - N/A   Overcast
7:35 AM 15.4 °F 8.1 °F 12.9 °F 90% 29.76 in 10.0 mi SSW 4.6 mph - N/A   Mostly Cloudy
7:55 AM 15.1 °F 5.2 °F 12.7 °F 90% 29.76 in 10.0 mi South 6.9 mph - N/A   Mostly Cloudy
8:15 AM 15.3 °F 6.6 °F 12.7 °F 90% 29.76 in 10.0 mi SSW 5.8 mph - N/A   Mostly Cloudy
8:35 AM 15.3 °F 7.9 °F 12.7 °F 90% 29.76 in 10.0 mi SSW 4.6 mph - N/A   Overcast
8:55 AM 16.0 °F 7.4 °F 13.1 °F 88% 29.76 in 10.0 mi SSW 5.8 mph - N/A   Overcast
9:15 AM 16.7 °F 7.2 °F 13.6 °F 88% 29.76 in 10.0 mi SSW 6.9 mph - N/A   Overcast
9:35 AM 17.4 °F 9.1 °F 14.0 °F 86% 29.76 in 10.0 mi SW 5.8 mph - N/A   Overcast
9:55 AM 18.1 °F 7.9 °F 14.0 °F 84% 29.75 in 10.0 mi SSW 8.1 mph - N/A   Overcast
10:15 AM 18.7 °F 9.5 °F 14.5 °F 84% 29.75 in 10.0 mi SSW 6.9 mph - N/A   Overcast
10:35 AM 19.4 °F 11.5 °F 14.7 °F 82% 29.75 in 10.0 mi SW 5.8 mph - N/A   Overcast
10:55 AM 20.3 °F 12.5 °F 15.1 °F 80% 29.75 in 10.0 mi SW 5.8 mph - N/A   Scattered Clouds
11:15 AM 21.6 °F 12.1 °F 15.6 °F 78% 29.75 in 10.0 mi SSW 8.1 mph - N/A   Clear
11:35 AM 22.6 °F 14.3 °F 16.0 °F 76% 29.74 in 10.0 mi SSW 6.9 mph - N/A   Clear
11:55 AM 23.5 °F 16.4 °F 16.7 °F 75% 29.75 in 10.0 mi SW 5.8 mph - N/A   Clear
12:15 PM 24.6 °F 17.7 °F 17.4 °F 74% 29.73 in 10.0 mi SSW 5.8 mph - N/A   Clear
12:55 PM 27.7 °F 19.6 °F 18.9 °F 69% 29.73 in 10.0 mi West 8.1 mph - N/A   Clear
1:15 PM 28.8 °F 17.9 °F 19.2 °F 68% 29.73 in 7.0 mi West 13.8 mph - N/A   Clear
1:35 PM 29.3 °F 20.2 °F 19.2 °F 66% 29.72 in 7.0 mi West 10.4 mph - N/A   Clear
1:55 PM 29.8 °F 21.5 °F 19.6 °F 66% 29.72 in 7.0 mi WSW 9.2 mph - N/A   Mostly Cloudy
2:15 PM 30.2 °F 21.9 °F 20.3 °F 67% 29.72 in 7.0 mi West 9.2 mph - N/A   Overcast
2:35 PM 29.8 °F 20.9 °F 20.3 °F 68% 29.72 in 7.0 mi West 10.4 mph - N/A   Overcast
2:55 PM 29.8 °F 22.2 °F 20.3 °F 68% 29.72 in 7.0 mi WSW 8.1 mph - N/A   Overcast
3:15 PM 29.5 °F 21.1 °F 20.1 °F 68% 29.72 in 7.0 mi West 9.2 mph - N/A   Overcast
3:55 PM 29.8 °F 24.9 °F 20.7 °F 69% 29.72 in 7.0 mi WSW 4.6 mph - N/A   Overcast
4:15 PM 29.7 °F 22.0 °F 20.8 °F 70% 29.72 in 7.0 mi WSW 8.1 mph - N/A   Overcast
4:55 PM 28.4 °F 18.5 °F 20.3 °F 72% 29.72 in 7.0 mi West 11.5 mph - N/A   Overcast
5:15 PM 27.9 °F 18.4 °F 19.8 °F 72% 29.71 in 7.0 mi West 10.4 mph - N/A   Overcast
5:35 PM 27.5 °F 20.2 °F 19.4 °F 72% 29.71 in 10.0 mi WSW 6.9 mph - N/A   Mostly Cloudy
5:55 PM 27.0 °F 16.7 °F 18.9 °F 72% 29.71 in 7.0 mi WSW 11.5 mph - N/A   Scattered Clouds
6:15 PM 25.3 °F 17.6 °F 18.0 °F 74% 29.72 in 7.0 mi West 6.9 mph - N/A   Scattered Clouds
6:35 PM 24.6 °F 15.8 °F 18.0 °F 76% 29.72 in 7.0 mi WSW 8.1 mph - N/A   Overcast
6:55 PM 24.3 °F 15.4 °F 17.8 °F 76% 29.71 in 10.0 mi WSW 8.1 mph - N/A   Mostly Cloudy
7:15 PM 23.7 °F 16.6 °F 17.6 °F 77% 29.71 in 10.0 mi WSW 5.8 mph - N/A   Scattered Clouds
7:35 PM 23.2 °F 15.0 °F 17.8 °F 80% 29.71 in 7.0 mi West 6.9 mph - N/A   Mostly Cloudy
7:55 PM 23.4 °F 12.8 °F 18.3 °F 81% 29.71 in 10.0 mi West 10.4 mph - N/A   Overcast
8:15 PM 23.2 °F 15.0 °F 18.5 °F 82% 29.71 in 7.0 mi West 6.9 mph - N/A   Overcast
8:35 PM 23.5 °F 13.7 °F 19.0 °F 83% 29.71 in 7.0 mi West 9.2 mph - N/A   Overcast
8:55 PM 23.9 °F 14.2 °F 19.8 °F 84% 29.71 in 7.0 mi WSW 9.2 mph - N/A   Overcast
9:15 PM 24.3 °F 14.6 °F 20.1 °F 84% 29.71 in 7.0 mi WSW 9.2 mph - N/A   Overcast
9:35 PM 24.4 °F 15.6 °F 20.3 °F 84% 29.71 in 7.0 mi WSW 8.1 mph - N/A   Overcast
9:55 PM 24.6 °F 16.7 °F 20.8 °F 86% 29.70 in 7.0 mi WSW 6.9 mph - N/A   Overcast
10:15 PM 24.8 °F 16.9 °F 21.0 °F 86% 29.69 in 10.0 mi WSW 6.9 mph - N/A   Overcast
10:35 PM 24.8 °F 17.9 °F 21.2 °F 86% 29.69 in 7.0 mi WSW 5.8 mph - N/A   Overcast
10:55 PM 24.8 °F 16.9 °F 21.2 °F 86% 29.68 in 10.0 mi WSW 6.9 mph - N/A   Overcast
11:35 PM 24.8 °F 17.9 °F 21.2 °F 86% 29.68 in 7.0 mi WSW 5.8 mph - N/A   Overcast
11:55 PM 24.8 °F 17.9 °F 21.6 °F 87% 29.68 in 7.0 mi WSW 5.8 mph - N/A   Overcast